Regional Weather Roundup
Issued by NWS

Home | Current Version | Previous Version | Graphics & Text | Print | Product List | Glossary On
Versions: 1 2 3 4 5 6 7 8 9 10 11 12 13 14 15 16 17 18 19 20 21 22 23 24 25 26 27 28 29 30 31 32 33 34 35 36 37 38 39 40 41 42 43 44 45 46 47 48 49 50
000
ASUS43 KDMX 261906
RWRIA

WEATHER ROUNDUP FOR IOWA
NATIONAL WEATHER SERVICE DES MOINES IA
200 PM CDT SAT MAY 26 2018

NOTE: "FAIR" INDICATES FEW OR NO CLOUDS BELOW 12,000 FEET WITH NO
SIGNIFICANT WEATHER AND/OR OBSTRUCTIONS TO VISIBILITY.

* - THESE STATIONS ARE NOT NWS STATIONS...THUS NOT UNDER NWS
QUALITY CONTROL.  THEY ALSO DO NOT REPORT WEATHER SUCH
AS PRECIPITATION OR FOG.

IAZ001>003-012>014-020>022-031>034-043>046-262000-
   NORTHWEST IOWA

CITY           SKY/WX    TMP DP  RH WIND       PRES   REMARKS
CARROLL *      SUNNY     97  46  17 NW14G23   29.76F HX  93
CHEROKEE *     SUNNY     91  56  31 NW9       29.76F HX  89
DENISON *      SUNNY     93  52  24 N9        29.79S HX  90
LE MARS *      SUNNY     95  48  20 VRB7G16   29.76F HX  91
ORANGE CITY *  SUNNY     91  54  27 NW13G20   29.78F HX  89
SHELDON *      SUNNY     95  48  20 NW17G28   29.76F HX  91
SIOUX CITY     SUNNY     94  57  28 VRB5      29.76F HX  92
SPENCER        SUNNY     94  56  27 NW12      29.77F HX  92
STORM LAKE *     N/A     93  46  20 W9G17     29.78F HX  89
$$

IAZ055>058-069>071-079>083-090>094-262000-
   SOUTHWEST IOWA

CITY           SKY/WX    TMP DP  RH WIND       PRES   REMARKS
ATLANTIC *     SUNNY     95  50  21 NW8G17    29.76S HX  92
CLARINDA *     SUNNY     97  61  30 E8        29.78F HX  97
COUNCIL BLFS * SUNNY     95  55  26 CALM      29.77S HX  93
CRESTON *      SUNNY     95  55  26 N8        29.79S HX  93
HARLAN  *      SUNNY     95  54  24 NW12G18   29.80F HX  93
LAMONI         SUNNY     90  69  50 E3        29.78F HX  94
RED OAK *      SUNNY     97  57  26 VRB5      29.76S HX  95
SHENANDOAH *   SUNNY     97  59  28 CALM      29.76F HX  96
$$

IAZ047>049-059>061-072>074-084-262000-
   CENTRAL IOWA

CITY           SKY/WX    TMP DP  RH WIND       PRES   REMARKS
AMES           MOSUNNY   91  64  40 E6        29.75F HX  92
ANKENY *       SUNNY     93  61  33 VRB5      29.76F HX  93
BOONE *        MOSUNNY   93  57  29 NW10G17   29.75F HX  92
CHARITON *     SUNNY     90  64  43 CALM      29.77F HX  91
DES MOINES     MOSUNNY   93  63  36 CALM      29.75F HX  94
GRINNELL*      SUNNY     91  57  32 NW3       29.78S HX  89
KNOXVILLE *    SUNNY     91  66  43 VRB3      29.76S HX  94
MARSHALLTOWN   SUNNY     92  63  38 NE3       29.75F HX  93
NEWTON *       SUNNY     93  63  36 VRB7      29.77S HX  94
PELLA *        SUNNY     91  65  41 W5        29.77F HX  92
PERRY *        FAIR      94  44  17 N7G17     29.75F HX  90
$$

IAZ004>006-015-016-023>025-035-036-262000-
   NORTH CENTRAL IOWA

CITY           SKY/WX    TMP DP  RH WIND       PRES   REMARKS
ALGONA *       SUNNY     91  54  27 NW9G17    29.77F HX  89
CLARION *      SUNNY     91  50  24 NW5G13    29.76S HX  88
ESTHERVILLE    SUNNY     89  52  28 W8        29.76F HX  86
FORT DODGE *   SUNNY     92  57  30 W9        29.76F HX  90
MASON CITY     SUNNY     92  60  34 NW13      29.77F HX  91
FOREST CITY *  FAIR      90  54  29 W9G16     29.76F HX  87
WEBSTER CITY * SUNNY     95  50  21 VRB7G21   29.74S HX  92
IOWA FALLS *   FAIR      92  62  36 NW5       29.77F HX  92
$$

IAZ007>011-017>019-026>030-037>042-050>054-066-262000-
   NORTHEAST IOWA

CITY           SKY/WX    TMP DP  RH WIND       PRES   REMARKS
CEDAR RAPIDS   FAIR      88  69  53 VRB3      29.77F HX  92
CHARLES CITY * FAIR      90  61  37 CALM      29.77F HX  89
CLINTON *        N/A     86  68  54 SW3       29.79S HX  89
DECORAH *      FAIR      86  66  51 S6        29.77S HX  88
DUBUQUE        FAIR      85  67  54 CALM      29.79F HX  87
MONTICELLO *   FAIR      88  70  55 CALM      29.77F HX  92
OELWEIN *      FAIR      88  66  48 VRB5      29.78F HX  90
WATERLOO       FAIR      90  67  46 CALM      29.75F HX  93
$$

IAZ064-065-067-068-078-262000-
   EAST CENTRAL IOWA

CITY           SKY/WX    TMP DP  RH WIND       PRES   REMARKS
DAVENPORT      FAIR      86  67  52 E5        29.80S HX  89
IOWA CITY      FAIR      88  71  57 S8        29.78S HX  94
MT. PLEASANT * SUNNY     88  68  51 CALM      29.78S HX  91
MUSCATINE *    FAIR      88  70  55 CALM      29.77F HX  92
QUAD CITIES    FAIR      90  70  51 VRB3      29.76F HX  95
$$

IAZ062-063-075>077-085>089-095>099-262000-
   SOUTHEAST IOWA

CITY           SKY/WX    TMP DP  RH WIND       PRES   REMARKS
BURLINGTON     SUNNY     88  72  58 VRB3      29.77F HX  94
FAIRFIELD *    SUNNY     88  70  55 CALM      29.77F HX  92
FORT MADISON * SUNNY     90  73  58 CALM      29.78S HX  98
KEOKUK *       MOSUNNY   91  73  55 VRB3G13   29.76F HX 100
OSKALOOSA *    FAIR      91  64  41 S3        29.77F HX  92
CENTERVILLE *  FAIR      91  68  46 CALM      29.80S HX  95
OTTUMWA        SUNNY     91  71  51 VRB3      29.77F HX  97
WASHINGTON *   SUNNY     90  72  55 S6        29.79S HX  96
$$

ABBREVIATIONS USED IN REMARKS
   TC - TEMPERATURES IN CELSIUS
  WCI - WIND CHILL INDEX
   HX - HEAT INDEX
  VSB - VISIBILITY
$$





USA.gov is the U.S. government's official web portal to all federal, state and local government web resources and services.